Weather History for KJAX - July, 2013

Change the Weather History Date:

Monday, July 8, 2013

  Actual Average Record
Temperature  
Mean Temperature 81 °F 82 °F  
Max Temperature 90 °F 92 °F 100 °F (1879)
Min Temperature 71 °F 72 °F 61 °F (1972)
Degree Days  
Heating Degree Days 0 0  
Month to date heating degree days 0 0  
Since 1 June heating degree days 0 0  
Since 1 July heating degree days 0 0  
Cooling Degree Days 16 17  
Month to date cooling degree days 124 136  
Year to date cooling degree days 1033 1069  
Since 1 June cooling degree days 597 585  
Growing Degree Days 30 (Base 50)    
Moisture  
Dew Point 72 °F    
Average Humidity 78    
Maximum Humidity 100    
Minimum Humidity 55    
Precipitation  
Precipitation 0.00 in 0.21 in 3.78 in (1946)
Month to date precipitation 1.82 1.69  
Year to date precipitation 23.58 23.70  
Snow  
Snow 0.00 in 0.00 in 0.00 in (2002)
Month to date snowfall 0.0 0.0  
Since 1 June snowfall 0.0 0.0  
Since 1 July snowfall 0.0 0.0  
Snow Depth 0.00 in    
Sea Level Pressure  
Sea Level Pressure 30.16 in    
Wind  
Wind Speed 5 mph (ESE)    
Max Wind Speed 16 mph    
Max Gust Speed 23 mph    
Visibility 10 miles    
Events      
T = Trace of Precipitation, MM = Missing Value Source: NWS Daily Summary

Daily Weather History Graph

Daily Weather History Graph

Search for Another Location

Airport or City:

Trip Planner

Search our weather history database for the weather conditions in past years. The results will help you decide how hot, cold, wet, or windy it might be!

Date:

Astronomy

Jul. 08, 2013 Rise Set
Actual Time 6:31 AM EDT 8:32 PM EDT
Civil Twilight 6:03 AM EDT 8:59 PM EDT
Nautical Twilight 5:30 AM EDT 9:32 PM EDT
Astronomical Twilight 4:55 AM EDT 10:08 PM EDT
Moon 6:53 AM EDT (7/8) 8:41 PM EDT (7/8)
Length of Visible Light 14h 55m
Length of Day
14h 01m
New Moon, 0% of the Moon is Illuminated
Jul 8
New Moon
Jul 15
First Quarter
Jul 22
Full
Jul 29
Last Quarter
Aug 6
New

Hourly Weather History & Observations

Time (EDT) Temp. Heat Index Dew Point Humidity Pressure Visibility Wind Dir Wind Speed Gust Speed Precip Events Conditions
12:56 AM 73.0 °F - 71.1 °F 93% 30.15 in 10.0 mi Calm Calm - N/A   Partly Cloudy
1:56 AM 73.0 °F - 71.1 °F 93% 30.15 in 10.0 mi Calm Calm - N/A   Partly Cloudy
2:56 AM 72.0 °F - 71.1 °F 97% 30.15 in 10.0 mi Calm Calm - N/A   Partly Cloudy
3:56 AM 72.0 °F - 71.1 °F 97% 30.14 in 10.0 mi Calm Calm - N/A   Partly Cloudy
4:56 AM 71.1 °F - 70.0 °F 96% 30.15 in 10.0 mi Calm Calm - N/A   Partly Cloudy
5:56 AM 71.1 °F - 70.0 °F 96% 30.15 in 10.0 mi Calm Calm - N/A   Scattered Clouds
6:56 AM 71.1 °F - 70.0 °F 96% 30.17 in 10.0 mi Calm Calm - N/A   Mostly Cloudy
7:56 AM 75.0 °F - 73.9 °F 96% 30.18 in 10.0 mi Calm Calm - N/A   Mostly Cloudy
8:56 AM 80.1 °F 85.1 °F 75.0 °F 85% 30.19 in 10.0 mi Calm Calm - N/A   Mostly Cloudy
9:56 AM 82.0 °F 87.4 °F 73.0 °F 74% 30.19 in 10.0 mi SE 3.5 mph - N/A   Mostly Cloudy
10:56 AM 86.0 °F 93.0 °F 73.0 °F 65% 30.19 in 10.0 mi SSE 4.6 mph - N/A   Mostly Cloudy
11:56 AM 87.1 °F 94.5 °F 73.0 °F 63% 30.19 in 10.0 mi East 6.9 mph - N/A   Mostly Cloudy
12:56 PM 88.0 °F 95.6 °F 73.0 °F 61% 30.18 in 10.0 mi East 8.1 mph - N/A   Mostly Cloudy
1:56 PM 88.0 °F 93.8 °F 71.1 °F 57% 30.17 in 10.0 mi Variable 3.5 mph - N/A   Mostly Cloudy
2:56 PM 88.0 °F 94.7 °F 72.0 °F 59% 30.16 in 10.0 mi East 6.9 mph - N/A   Mostly Cloudy
3:56 PM 89.1 °F 96.0 °F 72.0 °F 57% 30.15 in 10.0 mi ESE 9.2 mph 17.3 mph N/A   Mostly Cloudy
4:56 PM 88.0 °F 94.7 °F 72.0 °F 59% 30.13 in 10.0 mi SE 11.5 mph 18.4 mph N/A   Mostly Cloudy
5:56 PM 87.1 °F 92.0 °F 70.0 °F 57% 30.12 in 10.0 mi ESE 11.5 mph - N/A   Mostly Cloudy
6:56 PM 86.0 °F 90.7 °F 70.0 °F 59% 30.13 in 10.0 mi ESE 12.7 mph - N/A   Mostly Cloudy
7:56 PM 82.0 °F 86.3 °F 71.1 °F 69% 30.14 in 10.0 mi East 8.1 mph - N/A   Mostly Cloudy
8:56 PM 80.1 °F 84.2 °F 73.0 °F 79% 30.14 in 10.0 mi SE 5.8 mph - N/A   Mostly Cloudy
9:56 PM 79.0 °F - 73.0 °F 82% 30.17 in 10.0 mi ESE 8.1 mph - N/A   Scattered Clouds
10:56 PM 75.9 °F - 73.0 °F 91% 30.18 in 10.0 mi SSE 5.8 mph - N/A   Partly Cloudy
11:56 PM 75.9 °F - 73.0 °F 91% 30.19 in 10.0 mi Calm Calm - N/A   Partly Cloudy